When you browse on this site, cookies collect data to enhance your experience and personalize the content and advertising you see.
Visit our Privacy Policy to learn more. By continuing to use the site, you agree to this use of cookies and data.
  • In Hungary
  • List of Countries
  • For 7 days
  • Water Temperature
  • Satellite Maps
  • Weather Map
  • News
  • Weather Widgets
  • user-avatar
    Login

    Hourly Weather Raszowice

    Today, 25 May, Saturday

    Time Temperature Precipitation Wind Pressure Humidity
    00:00 +12°C° 0 mm 2 mps 751 mmHg 68%
    01:00 +12°C° 0 mm 2 mps 750 mmHg 70%
    02:00 +12°C° 0 mm 2 mps 750 mmHg 76%
    03:00 +12°C° 0 mm 2 mps 750 mmHg 82%
    04:00 +12°C° 0 mm 2 mps 750 mmHg 88%
    05:00 +12°C° 0 mm 3 mps 751 mmHg 85%
    06:00 +14°C° 0 mm 3 mps 751 mmHg 83%
    07:00 +15°C° 0 mm 4 mps 751 mmHg 80%
    08:00 +17°C° 0.1 mm 4 mps 751 mmHg 77%
    09:00 +19°C° 0.1 mm 4 mps 751 mmHg 73%
    10:00 +20°C° 0.1 mm 4 mps 751 mmHg 69%
    11:00 +20°C° 0.2 mm 4 mps 751 mmHg 65%
    12:00 +21°C° 0.2 mm 4 mps 751 mmHg 61%
    13:00 +22°C° 0.2 mm 4 mps 751 mmHg 57%
    14:00 +22°C° 0 mm 4 mps 751 mmHg 55%
    15:00 +22°C° 0 mm 4 mps 751 mmHg 54%
    16:00 +22°C° 0 mm 3 mps 751 mmHg 53%
    17:00 +21°C° 0 mm 3 mps 751 mmHg 59%
    18:00 +19°C° 0 mm 2 mps 751 mmHg 65%
    19:00 +18°C° 0 mm 2 mps 751 mmHg 72%
    20:00 +16°C° 0 mm 2 mps 751 mmHg 75%
    21:00 +15°C° 0 mm 2 mps 751 mmHg 79%
    22:00 +13°C° 0 mm 2 mps 752 mmHg 82%
    23:00 +13°C° 0 mm 2 mps 752 mmHg 85%

    Tomorrow, 26 May, Sunday

    Time Temperature Precipitation Wind Pressure Humidity
    00:00 +12°C° 0 mm 2 mps 752 mmHg 87%
    01:00 +11°C° 0 mm 1 mps 752 mmHg 89%
    02:00 +11°C° 0 mm 1 mps 752 mmHg 90%
    03:00 +10°C° 0 mm 1 mps 752 mmHg 91%
    04:00 +10°C° 0 mm 1 mps 752 mmHg 92%
    05:00 +12°C° 0 mm 2 mps 752 mmHg 87%
    06:00 +13°C° 0 mm 2 mps 752 mmHg 82%
    07:00 +15°C° 0 mm 2 mps 752 mmHg 76%
    08:00 +16°C° 0 mm 3 mps 751 mmHg 71%
    09:00 +18°C° 0 mm 3 mps 751 mmHg 66%
    10:00 +19°C° 0 mm 4 mps 751 mmHg 61%
    11:00 +20°C° 0 mm 4 mps 751 mmHg 58%
    12:00 +21°C° 0 mm 5 mps 750 mmHg 55%
    13:00 +22°C° 0 mm 5 mps 750 mmHg 52%
    14:00 +22°C° 0 mm 5 mps 750 mmHg 53%
    15:00 +22°C° 0 mm 5 mps 749 mmHg 53%
    16:00 +22°C° 0 mm 5 mps 749 mmHg 54%
    17:00 +21°C° 0 mm 4 mps 749 mmHg 60%
    18:00 +20°C° 0 mm 3 mps 749 mmHg 65%
    19:00 +19°C° 0 mm 2 mps 749 mmHg 71%
    20:00 +17°C° 0 mm 2 mps 750 mmHg 73%
    21:00 +16°C° 0 mm 2 mps 750 mmHg 75%
    22:00 +15°C° 0 mm 2 mps 750 mmHg 78%
    23:00 +15°C° 0 mm 2 mps 750 mmHg 80%

    Day after tomorrow, 27 May, Monday

    Time Temperature Precipitation Wind Pressure Humidity
    00:00 +14°C° 0 mm 2 mps 749 mmHg 81%
    01:00 +13°C° 0 mm 3 mps 749 mmHg 83%
    02:00 +13°C° 0 mm 3 mps 749 mmHg 85%
    03:00 +13°C° 0 mm 3 mps 749 mmHg 86%
    04:00 +13°C° 0 mm 2 mps 748 mmHg 88%
    05:00 +14°C° 0 mm 3 mps 748 mmHg 82%
    06:00 +17°C° 0 mm 4 mps 748 mmHg 77%
    07:00 +19°C° 0 mm 4 mps 748 mmHg 72%
    08:00 +20°C° 0 mm 4 mps 748 mmHg 67%
    09:00 +22°C° 0 mm 4 mps 748 mmHg 63%
    10:00 +23°C° 0 mm 5 mps 748 mmHg 58%
    11:00 +23°C° 0.3 mm 4 mps 748 mmHg 58%
    12:00 +25°C° 0.3 mm 4 mps 748 mmHg 58%
    13:00 +25°C° 0.3 mm 4 mps 747 mmHg 59%
    14:00 +25°C° 0.6 mm 4 mps 747 mmHg 61%
    15:00 +25°C° 0.6 mm 3 mps 747 mmHg 63%
    16:00 +25°C° 0.6 mm 3 mps 747 mmHg 65%
    17:00 +23°C° 0.8 mm 2 mps 747 mmHg 71%
    18:00 +21°C° 0.8 mm 2 mps 747 mmHg 78%
    19:00 +19°C° 0.8 mm 2 mps 747 mmHg 84%
    20:00 +19°C° 0 mm 1 mps 747 mmHg 86%
    21:00 +18°C° 0 mm 1 mps 747 mmHg 88%
    22:00 +16°C° 0 mm 1 mps 747 mmHg 90%
    23:00 +16°C° 0 mm 1 mps 747 mmHg 91%

    28 May, Tuesday

    Time Temperature Precipitation Wind Pressure Humidity
    00:00 +15°C° 0 mm 1 mps 747 mmHg 92%
    01:00 +15°C° 0 mm 1 mps 747 mmHg 93%
    02:00 +15°C° 0 mm 1 mps 746 mmHg 94%
    03:00 +15°C° 0 mm 1 mps 746 mmHg 95%
    04:00 +15°C° 0 mm 1 mps 746 mmHg 96%
    05:00 +15°C° 0.6 mm 1 mps 746 mmHg 95%
    06:00 +15°C° 0.6 mm 1 mps 746 mmHg 94%
    07:00 +16°C° 0.6 mm 1 mps 746 mmHg 94%
    08:00 +16°C° 1.8 mm 1 mps 746 mmHg 95%
    09:00 +16°C° 1.8 mm 2 mps 746 mmHg 96%
    10:00 +16°C° 1.8 mm 2 mps 746 mmHg 96%
    11:00 +16°C° 0.8 mm 3 mps 746 mmHg 95%
    12:00 +15°C° 0.8 mm 4 mps 746 mmHg 94%
    13:00 +15°C° 0.8 mm 5 mps 746 mmHg 93%
    14:00 +14°C° 0.8 mm 5 mps 746 mmHg 93%
    15:00 +14°C° 0.8 mm 5 mps 746 mmHg 93%
    16:00 +13°C° 0.8 mm 5 mps 746 mmHg 93%
    17:00 +13°C° 0.6 mm 4 mps 746 mmHg 94%
    18:00 +13°C° 0.6 mm 4 mps 746 mmHg 94%
    19:00 +13°C° 0.6 mm 4 mps 746 mmHg 95%
    20:00 +13°C° 0.1 mm 4 mps 747 mmHg 95%
    21:00 +13°C° 0.1 mm 4 mps 747 mmHg 96%
    22:00 +13°C° 0.1 mm 3 mps 747 mmHg 96%
    23:00 +12°C° 0.2 mm 3 mps 748 mmHg 96%

    29 May, Wednesday

    Time Temperature Precipitation Wind Pressure Humidity
    00:00 +12°C° 0.2 mm 3 mps 748 mmHg 96%
    01:00 +12°C° 0.2 mm 3 mps 748 mmHg 96%
    02:00 +11°C° 0.2 mm 3 mps 748 mmHg 96%
    03:00 +11°C° 0.2 mm 3 mps 749 mmHg 95%
    04:00 +12°C° 0.2 mm 2 mps 749 mmHg 95%
    05:00 +11°C° 0.1 mm 3 mps 750 mmHg 93%
    06:00 +11°C° 0.1 mm 3 mps 750 mmHg 92%
    07:00 +12°C° 0.1 mm 4 mps 751 mmHg 90%
    08:00 +13°C° 0 mm 4 mps 752 mmHg 84%
    09:00 +14°C° 0 mm 4 mps 752 mmHg 79%
    10:00 +15°C° 0 mm 5 mps 753 mmHg 73%
    11:00 +15°C° 0.1 mm 5 mps 753 mmHg 72%
    12:00 +16°C° 0.1 mm 5 mps 753 mmHg 72%
    13:00 +16°C° 0.1 mm 5 mps 753 mmHg 71%
    14:00 +15°C° 0.1 mm 5 mps 754 mmHg 72%
    15:00 +15°C° 0.1 mm 5 mps 754 mmHg 72%
    16:00 +15°C° 0.1 mm 5 mps 754 mmHg 73%
    17:00 +14°C° 0 mm 4 mps 754 mmHg 75%
    18:00 +13°C° 0 mm 4 mps 755 mmHg 77%
    19:00 +13°C° 0 mm 3 mps 755 mmHg 78%
    20:00 +12°C° 0 mm 3 mps 756 mmHg 78%
    21:00 +11°C° 0 mm 3 mps 756 mmHg 77%
    22:00 +10°C° 0 mm 3 mps 757 mmHg 77%
    23:00 +9°C° 0 mm 2 mps 757 mmHg 75%

    30 May, Thursday

    Time Temperature Precipitation Wind Pressure Humidity
    00:00 +9°C° 0 mm 2 mps 758 mmHg 73%
    01:00 +8°C° 0 mm 2 mps 758 mmHg 71%
    02:00 +9°C° 0 mm 1 mps 758 mmHg 71%
    03:00 +8°C° 0 mm 1 mps 758 mmHg 72%
    04:00 +8°C° 0 mm 1 mps 758 mmHg 72%
    05:00 +9°C° 0 mm 1 mps 758 mmHg 70%
    06:00 +10°C° 0 mm 1 mps 758 mmHg 68%
    07:00 +12°C° 0 mm 1 mps 758 mmHg 65%
    08:00 +13°C° 0 mm 1 mps 758 mmHg 62%
    09:00 +14°C° 0 mm 1 mps 758 mmHg 59%
    10:00 +15°C° 0 mm 1 mps 758 mmHg 56%
    11:00 +16°C° 0 mm 1 mps 757 mmHg 54%
    12:00 +17°C° 0 mm 2 mps 757 mmHg 52%
    13:00 +18°C° 0 mm 2 mps 756 mmHg 50%
    14:00 +18°C° 0 mm 2 mps 756 mmHg 52%
    15:00 +18°C° 0 mm 3 mps 755 mmHg 54%
    16:00 +18°C° 0 mm 3 mps 755 mmHg 55%
    17:00 +17°C° 0 mm 3 mps 755 mmHg 62%
    18:00 +16°C° 0 mm 3 mps 754 mmHg 68%
    19:00 +14°C° 0 mm 3 mps 754 mmHg 74%
    20:00 +13°C° 0 mm 3 mps 754 mmHg 75%
    21:00 +12°C° 0 mm 3 mps 754 mmHg 76%
    22:00 +11°C° 0 mm 3 mps 754 mmHg 77%
    23:00 +10°C° 0 mm 3 mps 753 mmHg 78%
    Show more